Wind_Speed
29 30 34 33 30 26 26 27 25 21 16 12 11 10 8 6 3 2 1 2 3 4 6 8 11 13 15
28 34 39 36 33 30 29 28 25 22 18 14 13 12 10 8 5 3 3 3 4 5 6 8 11 13 14
23 36 38 38 35 32 30 28 25 21 18 16 14 14 12 9 7 6 4 4 4 5 6 9 11 13 14
30 33 33 37 37 36 32 30 26 23 19 18 16 15 13 11 8 7 6 6 6 6 6 9 11 12 13
29 24 29 30 36 34 33 31 27 26 23 22 20 18 15 12 11 9 8 7 7 6 7 9 11 12 13
30 28 30 32 34 37 32 25 13 28 26 25 23 22 18 15 13 11 10 9 7 7 7 9 11 11 13
41 37 33 45 43 39 39 37 23 14 31 27 25 23 20 17 14 13 11 10 9 7 7 9 10 10 12
36 36 36 38 43 40 40 34 26 15 22 15 24 23 21 18 16 14 12 11 9 8 8 8 10 11 13
29 26 28 25 36 33 32 31 16 15 22 12 15 21 19 18 16 14 12 11 11 9 8 9 11 13 13
28 21 21 23 24 35 35 35 21 12 25 21 15 16 7 16 18 16 12 11 12 11 9 10 12 13 12
30 24 23 24 27 32 31 32 34 11 17 30 19 22 6 6 16 16 13 14 14 13 11 10 12 12 13
32 29 28 30 29 29 27 25 25 15 12 34 12 24 15 9 7 14 13 14 13 11 10 9 10 10 9
37 35 34 32 29 27 25 23 22 20 14 28 15 22 17 10 8 9 12 14 13 10 9 9 8 8 10
41 37 32 30 31 32 30 27 24 20 19 22 19 15 17 10 7 9 12 6 11 8 7 7 7 7 10
41 38 35 35 36 34 32 31 26 26 22 20 18 17 13 9 9 8 12 11 8 7 7 5 5 6 8
41 40 40 39 39 37 34 32 29 28 26 24 23 19 12 6 8 10 12 10 8 6 7 7 3 6 7
43 41 38 37 37 36 34 33 29 29 27 27 25 18 7 2 5 9 10 10 7 5 6 8 10 10 5
Wind_Direction
186 184 188 194 195 199 198 197 205 214 213 207 207 208 211 208 212 232 309 1 11 18 21 15 13 11 9
177 181 192 196 198 197 200 208 212 214 218 217 215 219 220 221 226 243 273 310 328 335 352 2 8 9 9
172 186 190 196 194 198 201 205 212 217 219 222 219 223 226 229 233 243 263 283 306 319 331 346 355 8 7
181 183 188 193 198 193 193 202 205 210 217 219 217 219 224 227 234 244 260 279 290 305 320 340 351 358 5
174 178 184 185 192 193 197 198 204 210 210 213 214 216 216 219 229 240 256 268 279 297 312 333 341 353 358
181 182 190 190 190 195 195 185 196 213 214 215 216 220 222 226 233 243 251 254 277 289 301 322 334 345 348
193 191 189 198 193 194 198 199 198 196 205 212 217 222 225 225 233 240 247 253 267 278 292 308 324 332 339
211 210 211 205 207 204 198 198 198 201 200 205 217 222 223 228 230 231 237 246 258 271 286 300 313 321 332
219 222 220 215 208 199 192 186 188 202 199 205 205 211 221 224 222 219 236 228 251 260 274 291 311 319 327
215 218 218 215 218 215 207 186 183 184 207 198 188 185 189 217 211 218 223 228 233 255 267 290 308 319 327
205 202 199 199 203 210 214 211 196 201 204 193 189 185 173 161 195 209 222 227 237 253 272 290 307 316 328
194 191 192 196 200 202 205 210 214 210 207 194 195 188 179 150 166 199 215 229 235 249 269 292 309 319 319
194 196 199 200 192 190 194 199 200 204 192 195 203 194 192 177 169 191 204 226 231 244 265 296 308 315 327
195 196 193 187 187 190 182 184 184 178 185 193 200 197 183 182 196 192 211 205 216 231 270 288 306 316 326
196 190 186 185 187 188 186 179 178 172 172 177 184 185 184 192 185 208 207 212 221 246 274 287 285 301 324
198 194 187 185 186 186 188 184 180 178 175 172 173 167 161 178 194 201 199 210 225 252 286 314 284 318 328
198 195 188 184 180 179 182 184 185 182 184 180 178 176 148 149 170 201 206 208 226 260 290 309 322 337 339
Height
877 884 890 895 899 904 907 910 913 915 917 919 920 922 923 924 924 925 925 925 925 924 923 921 920 919 916
872 878 884 890 895 900 904 907 910 912 914 917 919 921 922 923 924 924 924 923 923 923 922 920 918 917 916
867 873 880 886 892 897 901 905 909 911 913 915 917 918 920 921 922 922 923 923 922 921 920 919 917 917 914
863 869 876 882 887 891 897 901 904 907 910 913 914 916 917 919 920 921 922 922 922 920 919 918 917 914 911
858 864 869 875 879 885 891 896 900 902 905 908 910 912 914 916 917 918 918 919 920 920 920 918 915 914 911
849 853 859 866 874 879 886 893 897 895 899 903 907 908 911 913 915 915 916 917 919 919 918 916 914 912 909
837 843 851 854 862 871 877 882 885 888 893 899 903 906 908 909 911 913 914 916 917 916 915 913 911 910 907
837 840 845 851 856 862 869 877 885 888 891 895 897 901 904 906 908 909 911 912 913 914 913 912 909 907 905
837 841 845 850 856 862 869 876 881 884 887 892 893 896 900 903 905 907 909 911 911 910 910 910 908 906 904
835 839 844 847 851 856 859 865 874 881 882 888 889 892 897 898 901 904 905 906 907 908 908 908 907 905 903
830 835 839 843 846 852 857 861 865 871 873 879 882 887 890 893 897 900 902 904 905 905 906 907 906 903 902
826 830 834 838 842 848 854 859 865 868 870 874 877 881 885 891 894 897 898 900 902 904 905 904 903 901 899
819 823 828 833 840 846 851 855 861 866 868 871 876 879 881 884 889 892 895 898 900 902 902 902 899 897 896
811 816 824 832 838 842 846 850 858 863 866 870 874 878 879 883 886 889 893 895 897 899 900 899 897 896 894
806 812 818 824 830 838 842 846 851 857 863 868 872 876 879 881 884 887 890 893 895 895 896 896 894 893 891
801 806 810 817 823 833 839 843 848 854 860 865 869 873 877 881 882 885 888 891 893 893 893 892 891 891 891
793 800 805 813 820 826 833 839 846 851 857 862 866 869 874 879 882 884 887 888 891 892 892 891 890 891 890